Weather History for PABI - November, 2011

Change the Weather History Date:

Tuesday, November 1, 2011

  Actual Average (PAEI) Record (PAEI)
Temperature  
Mean Temperature 3 °F -  
Max Temperature 8 °F 16 °F - (-1)
Min Temperature -2 °F -1 °F - (-1)
Degree Days  
Heating Degree Days 62    
Moisture  
Dew Point 1 °F    
Average Humidity 85    
Maximum Humidity 91    
Minimum Humidity 77    
Precipitation  
Precipitation 0.00 in - - ()
Sea Level Pressure  
Sea Level Pressure 29.92 in    
Wind  
Wind Speed 7 mph (West)    
Max Wind Speed 14 mph    
Max Gust Speed -    
Visibility 9 miles    
Events Snow    
Averages and records for this station are not official NWS values.
T = Trace of Precipitation, MM = Missing Value Source: NWS Daily Summary

Daily Weather History Graph

Daily Weather History Graph

Search for Another Location

Airport or City:

Trip Planner

Search our weather history database for the weather conditions in past years. The results will help you decide how hot, cold, wet, or windy it might be!

Date:

Astronomy

Nov. 01, 2011 Rise Set
Actual Time 9:25 AM AKDT 5:26 PM AKDT
Civil Twilight 8:32 AM AKDT 6:19 PM AKDT
Nautical Twilight 7:35 AM AKDT 7:16 PM AKDT
Astronomical Twilight 6:40 AM AKDT 8:11 PM AKDT
Moon 3:38 PM AKDT (11/1) 11:05 PM AKDT (11/1)
Length of Visible Light 9h 47m
Length of Day
8h 01m
Waxing Crescent, 41% of the Moon is Illuminated
Nov 1
Waxing Crescent
Nov 2
First Quarter
Nov 10
Full
Nov 18
Last Quarter
Nov 24
New

Hourly Weather History & Observations

Time (AKDT) Temp. Windchill Dew Point Humidity Pressure Visibility Wind Dir Wind Speed Gust Speed Precip Events Conditions
12:53 AM -2.0 °F -12.2 °F -5.1 °F 87% 29.82 in 10.0 mi SSW 4.6 mph - N/A   Clear
1:53 AM -2.0 °F -13.9 °F -6.0 °F 83% 29.82 in 10.0 mi SW 5.8 mph - N/A   Clear
2:53 AM -2.0 °F -15.4 °F -7.1 °F 79% 29.83 in 10.0 mi SW 6.9 mph - N/A   Clear
3:19 AM -2.2 °F -14.2 °F -5.8 °F 85% 29.68 in 10.0 mi SW 5.8 mph - N/A   Mostly Cloudy
3:53 AM -0.0 °F -11.6 °F -4.0 °F 83% 29.83 in 10.0 mi WSW 5.8 mph - N/A   Mostly Cloudy
4:53 AM 5.0 °F -4.1 °F 1.9 °F 87% 29.83 in 10.0 mi WSW 4.6 mph - N/A   Overcast
5:32 AM 6.8 °F -3.5 °F 3.2 °F 85% 29.70 in 10.0 mi West 5.8 mph - 0.00 in   Overcast
5:53 AM 7.0 °F -3.3 °F 3.9 °F 87% 29.83 in 10.0 mi West 5.8 mph - 0.00 in   Overcast
6:53 AM 7.0 °F -5.7 °F 3.9 °F 87% 29.84 in 10.0 mi West 8.1 mph - N/A   Overcast
7:53 AM 7.0 °F -1.7 °F 3.9 °F 87% 29.85 in 10.0 mi West 4.6 mph - 0.00 in Snow Light Snow
8:53 AM 6.1 °F -2.8 °F 3.0 °F 87% 29.87 in 9.0 mi West 4.6 mph - 0.00 in Snow Light Snow
9:53 AM 6.1 °F -4.3 °F 3.0 °F 87% 29.88 in 9.0 mi West 5.8 mph - 0.00 in Snow Light Snow
10:00 AM 6.8 °F -4.8 °F 3.2 °F 85% 29.73 in 9.0 mi West 6.9 mph - 0.00 in Snow Light Snow
10:53 AM 6.1 °F -5.6 °F 3.9 °F 91% 29.91 in 8.0 mi WNW 6.9 mph - 0.00 in Snow Light Snow
11:53 AM 7.0 °F -5.7 °F 3.9 °F 87% 29.91 in 7.0 mi West 8.1 mph - 0.00 in Snow Light Snow
12:53 PM 7.0 °F -5.7 °F 3.9 °F 87% 29.94 in 7.0 mi West 8.1 mph - 0.00 in Snow Light Snow
1:53 PM 7.0 °F -7.5 °F 3.9 °F 87% 29.95 in 7.0 mi WNW 10.4 mph - 0.00 in Snow Light Snow
2:53 PM 7.0 °F -6.6 °F 3.9 °F 87% 29.96 in 10.0 mi WNW 9.2 mph - 0.00 in   Overcast
3:48 PM 8.6 °F -2.6 °F 3.2 °F 79% 29.82 in 10.0 mi West 6.9 mph - 0.00 in   Overcast
3:53 PM 8.1 °F -4.3 °F 3.9 °F 83% 29.97 in 10.0 mi West 8.1 mph - 0.00 in   Overcast
4:53 PM 8.1 °F -4.3 °F 5.0 °F 87% 29.98 in 10.0 mi WNW 8.1 mph - N/A   Overcast
5:53 PM 8.1 °F -8.4 °F 5.0 °F 87% 29.99 in 8.0 mi WNW 13.8 mph - 0.00 in Snow Light Snow
6:53 PM 7.0 °F -5.7 °F 1.0 °F 77% 30.03 in 9.0 mi WNW 8.1 mph - 0.00 in Snow Light Snow
7:53 PM 6.1 °F -8.7 °F 3.0 °F 87% 30.07 in 9.0 mi WNW 10.4 mph - 0.00 in Snow Light Snow
8:38 PM 5.0 °F -6.9 °F 1.4 °F 85% 29.95 in 9.0 mi West 6.9 mph - 0.00 in Snow Light Snow
8:53 PM 3.9 °F -6.9 °F 1.0 °F 88% 30.11 in 9.0 mi West 5.8 mph - 0.00 in Snow Light Snow
9:37 PM 3.2 °F -7.8 °F -0.4 °F 85% 29.98 in 10.0 mi West 5.8 mph - 0.00 in   Scattered Clouds
9:53 PM 3.0 °F -11.5 °F -0.9 °F 84% 30.13 in 10.0 mi West 9.2 mph - 0.00 in   Partly Cloudy
10:53 PM 1.9 °F -10.6 °F -0.9 °F 88% 30.17 in 10.0 mi West 6.9 mph - N/A   Clear
11:37 PM 1.4 °F -12.5 °F -2.2 °F 85% 30.04 in 10.0 mi West 8.1 mph - N/A   Scattered Clouds
11:53 PM 1.0 °F -11.7 °F -2.0 °F 87% 30.20 in 10.0 mi West 6.9 mph - N/A   Partly Cloudy